GEFSCGP_con_probscp_120.txt.gz
Probability
0 0 0 0 0 0 0 0 0 0 0 0 0 1 3 5 3 2 5 10 17 22 25 27 30 31 32 33 35 35 32 32 33 31 27 20 14 16 16 11 6 4 2 1
0 0 0 0 0 0 0 0 0 0 0 0 0 1 3 5 4 2 3 8 14 20 24 29 32 32 33 35 34 31 30 30 30 27 23 19 16 16 16 13 9 6 4 3
0 0 0 0 0 0 0 0 0 0 0 0 0 1 2 4 4 2 2 6 12 17 22 27 30 29 30 31 29 25 25 26 25 22 18 15 13 12 11 12 10 7 5 4
0 0 0 0 0 0 0 0 0 0 0 0 0 0 1 2 3 2 2 6 11 16 19 23 26 26 24 23 21 19 21 21 20 18 14 10 8 7 7 10 10 7 4 4
0 0 0 0 0 0 0 0 0 0 0 0 0 0 0 1 1 1 2 5 10 15 17 19 22 23 21 18 16 16 17 17 15 14 13 10 8 7 7 9 8 5 4 4
0 0 0 0 0 0 0 0 0 0 0 0 0 0 0 0 0 0 1 4 8 13 16 17 19 20 19 16 14 14 15 15 13 11 10 9 8 7 7 7 6 4 4 5
0 0 0 0 0 0 0 0 0 0 0 0 0 0 0 0 0 0 0 2 6 11 15 16 18 17 15 14 13 13 14 14 12 9 7 6 6 5 5 5 6 6 6 6
0 0 0 0 0 0 0 0 0 0 0 0 0 0 0 0 0 0 0 1 3 8 12 15 17 16 13 13 12 12 13 13 11 8 6 6 5 4 4 6 7 9 8 7
0 0 0 0 0 0 0 0 0 0 0 0 0 0 0 0 0 0 0 0 2 5 7 11 15 16 15 14 12 11 13 13 10 7 6 5 4 3 5 7 9 9 7 6
0 0 0 0 0 0 0 0 0 0 0 0 0 0 0 0 0 0 0 0 1 2 4 9 14 16 16 16 13 12 12 12 8 5 4 3 2 2 4 5 6 7 5 3
0 0 0 0 0 0 0 0 0 0 0 0 0 0 0 0 0 0 1 1 2 4 6 11 15 15 15 15 13 11 10 8 5 4 3 3 2 1 1 2 3 4 4 3
0 0 0 0 0 0 0 0 0 0 0 0 0 0 0 0 0 1 2 3 5 7 10 14 15 13 12 11 9 8 7 5 3 3 4 3 2 2 1 1 1 2 4 5
0 0 0 0 0 0 0 0 0 0 0 0 0 0 0 0 1 2 4 6 7 9 12 14 13 11 9 8 7 7 6 5 4 5 4 2 2 3 3 2 2 3 4 4
0 0 0 0 0 0 0 0 0 0 0 0 0 0 0 1 2 3 5 7 9 10 11 11 11 9 7 6 7 7 7 7 6 5 3 2 3 5 5 4 5 6 5 4
0 0 0 0 0 0 0 0 0 0 0 0 0 0 2 4 4 4 6 9 12 12 10 9 9 9 8 8 7 7 6 7 6 5 3 2 3 5 6 5 5 5 4 3
0 0 0 0 0 0 0 0 0 0 0 0 0 3 7 10 10 8 9 12 15 15 13 11 11 12 12 12 9 6 5 5 4 3 1 1 2 3 3 3 3 4 4 3
0 0 0 0 0 0 0 0 0 0 1 1 3 8 15 21 21 19 18 18 21 21 17 15 16 16 15 12 9 7 5 5 4 2 2 2 2 2 3 3 5 6 6 5
0 0 0 0 0 0 0 0 0 1 2 4 9 16 26 32 31 28 24 22 25 25 21 18 17 16 14 11 9 9 9 8 7 6 7 7 6 5 6 7 8 9 8 7
0 0 0 0 0 0 0 0 0 1 4 8 15 24 33 33 30 27 24 22 24 25 24 21 17 15 15 14 13 13 14 14 12 10 11 12 11 11 11 12 12 9 7 6
1 1 0 0 0 0 1 2 1 2 8 15 22 29 33 31 29 28 23 22 22 22 24 22 17 14 17 18 18 18 18 18 15 13 14 15 16 15 15 15 12 8 5 4
0 0 0 0 0 1 3 4 5 10 19 27 31 33 34 34 34 28 22 20 19 19 20 19 16 16 19 21 21 21 21 20 17 15 15 16 17 16 14 13 10 6 4 3
1 1 0 0 2 5 8 10 14 22 31 35 38 38 35 32 27 22 17 14 13 13 14 14 15 17 19 21 20 20 22 22 20 17 17 17 17 14 12 10 7 4 2 2
2 2 1 1 4 9 12 15 20 26 30 34 36 34 29 21 15 13 11 9 7 8 10 10 11 13 15 16 16 18 20 20 21 20 18 16 15 11 8 6 4 2 1 0
3 3 3 2 4 7 9 12 16 20 23 26 27 23 18 13 10 9 7 4 3 4 7 7 7 7 9 11 12 13 14 15 15 16 14 11 8 6 3 2 1 0 0 0
2 3 3 2 3 5 7 9 11 14 16 17 17 14 11 9 7 5 3 1 1 1 2 3 3 3 5 8 8 7 7 7 7 8 7 5 3 2 1 0 0 0 0 0
1 2 2 2 4 7 9 9 9 9 11 12 12 10 9 8 5 2 1 0 0 0 0 1 1 1 3 6 6 3 2 2 3 2 2 2 2 1 0 0 0 0 0 0

GEFSCGP_con_probscp_126.txt.gz
Probability
0 0 0 0 0 0 0 0 0 0 0 0 0 0 1 2 4 15 35 50 57 63 68 73 74 73 72 71 67 62 57 52 43 35 33 31 29 31 31 31 32 31 29 30
0 0 0 0 0 0 0 0 0 0 0 0 0 0 1 2 4 13 27 41 52 62 69 72 71 69 68 68 66 61 57 52 44 37 33 30 28 27 24 26 31 31 29 29
0 0 0 0 0 0 0 0 0 0 0 0 0 0 1 2 5 10 17 28 43 57 67 70 68 64 63 64 64 60 56 51 43 37 31 27 25 21 17 21 27 28 26 27
0 0 0 0 0 0 0 0 0 0 0 0 0 1 2 2 4 8 12 20 32 47 60 67 66 61 59 58 59 59 56 49 41 35 30 25 19 15 13 17 23 23 22 22
0 0 0 0 0 0 0 0 0 0 0 0 0 0 1 1 3 6 10 17 26 38 52 62 63 59 55 52 51 54 54 49 40 34 31 26 18 12 11 16 20 19 18 19
0 0 0 0 0 0 0 0 0 0 0 0 0 0 0 1 2 4 10 16 24 33 46 56 58 56 53 48 46 47 49 46 39 33 31 28 22 15 14 16 17 15 15 16
0 0 0 0 0 0 0 0 0 0 0 0 0 0 1 3 3 4 9 15 20 29 42 52 54 53 51 47 44 44 43 41 38 35 33 31 25 18 15 15 14 12 11 12
0 0 0 0 0 0 0 0 0 0 0 0 0 0 2 3 3 4 7 10 15 24 38 48 51 50 47 42 39 40 40 38 36 35 33 31 25 17 13 13 12 10 10 9
0 0 0 0 0 0 0 0 0 0 0 0 0 1 4 3 2 4 5 8 13 22 32 41 44 43 38 34 33 35 37 36 32 30 29 27 23 17 14 12 10 8 9 9
0 0 0 0 0 0 0 0 0 0 0 0 0 2 5 5 4 4 6 8 14 21 27 33 38 36 32 29 29 30 32 31 27 24 23 22 21 18 15 11 9 8 9 11
0 0 0 0 0 0 0 0 0 0 0 0 0 2 6 7 5 4 7 12 17 22 26 30 33 33 30 27 25 24 24 23 21 21 21 20 20 18 15 12 10 9 11 13
0 0 0 0 0 0 0 0 0 0 0 0 1 3 6 6 6 7 13 20 24 26 27 30 31 31 29 25 22 21 19 18 19 19 21 21 21 19 17 14 13 12 12 13
0 0 0 0 0 0 0 0 0 0 0 0 2 5 7 8 11 16 23 29 32 31 30 30 33 33 31 28 24 21 19 19 19 20 21 21 19 18 17 16 15 15 14 12
0 0 0 0 0 0 0 0 0 0 0 0 4 9 12 16 19 24 32 38 39 38 35 35 38 38 37 35 29 23 20 20 21 21 21 19 16 14 15 16 16 16 14 12
0 0 0 0 0 0 0 0 0 0 0 1 6 12 17 23 26 28 36 42 44 42 40 40 41 42 41 38 33 27 24 23 22 20 18 17 15 12 12 14 16 16 14 12
0 0 0 0 0 0 0 0 0 0 0 2 7 13 21 28 29 29 34 42 46 45 45 45 47 49 44 38 33 29 27 24 20 16 14 15 14 13 12 13 15 16 14 11
2 2 1 0 0 0 0 0 0 0 1 5 11 20 30 36 36 33 36 44 50 52 52 53 56 58 50 39 33 30 27 23 19 15 14 15 15 15 14 14 15 15 13 10
6 7 4 0 0 0 0 0 0 1 3 9 20 32 43 49 48 46 48 54 59 62 62 61 59 58 51 41 34 30 28 26 21 17 17 18 18 17 17 17 15 13 12 11
8 11 6 0 0 0 0 0 0 2 6 15 28 43 51 54 55 57 61 65 67 66 64 59 54 52 48 41 36 32 30 29 25 21 21 22 21 20 20 18 15 14 15 15
6 8 4 0 0 0 0 0 1 5 16 28 40 51 56 58 60 63 66 67 65 61 57 53 50 49 46 39 36 32 31 32 30 27 26 25 24 22 22 20 18 17 18 18
2 4 3 0 0 2 4 6 10 21 36 49 59 64 68 71 72 69 66 61 57 52 49 49 48 46 43 40 36 33 33 35 34 31 28 26 23 20 21 21 19 16 14 14
3 5 5 5 9 19 26 28 34 46 55 63 70 72 75 76 73 66 59 53 48 42 41 42 42 40 38 37 34 32 33 35 34 30 25 22 18 16 16 18 15 11 9 8
9 12 14 18 29 44 51 52 54 58 60 64 67 66 64 62 58 53 50 45 38 32 30 31 33 33 31 29 28 28 30 30 28 25 21 18 15 13 13 13 11 8 5 4
17 21 27 33 42 50 54 53 51 51 52 56 57 53 49 46 44 43 42 37 30 24 20 21 24 27 25 23 22 23 23 23 21 19 18 16 14 12 10 8 6 4 3 2
19 24 33 41 43 43 42 39 36 37 40 42 43 43 41 38 37 37 35 29 23 18 14 14 18 20 19 18 17 16 15 14 15 15 15 14 12 9 5 3 2 1 1 1
16 20 31 43 45 41 36 30 28 30 33 34 35 36 37 36 35 34 29 22 17 15 13 13 15 14 13 13 14 13 10 9 11 12 11 11 10 6 2 0 0 0 0 0

GEFSCGP_con_probscp_132.txt.gz
Probability
0 0 0 0 0 0 0 0 0 0 0 0 0 2 11 25 42 55 59 58 56 54 53 57 61 59 55 53 51 45 38 35 31 24 17 12 10 8 8 7 6 5 4 3
0 0 0 0 0 0 0 0 0 0 0 0 0 2 9 21 36 49 57 58 57 56 56 58 60 58 55 53 50 43 37 34 29 23 17 13 10 7 6 6 6 5 4 4
0 0 0 0 0 0 0 0 0 0 0 0 0 1 5 15 28 42 53 59 61 60 59 59 57 54 51 48 44 38 33 29 23 18 15 12 9 5 3 4 5 5 5 5
0 0 0 0 0 0 0 0 0 0 0 0 0 0 3 10 21 35 47 57 61 60 57 55 51 47 44 40 35 29 25 21 17 13 12 11 8 4 1 2 4 5 5 5
0 0 0 0 0 0 0 0 0 0 0 0 0 1 2 7 16 27 39 50 57 55 51 46 41 37 35 33 27 21 16 15 14 11 10 9 6 3 1 1 3 4 3 3
0 0 0 0 0 0 0 0 0 0 0 0 0 1 2 4 11 20 31 44 52 51 44 38 33 30 30 28 25 18 13 12 11 9 7 6 4 2 1 1 1 2 2 2
0 0 0 0 0 0 0 0 0 0 0 0 0 0 1 2 8 18 27 38 48 48 41 34 31 30 29 27 25 21 15 11 9 7 6 5 4 4 3 1 1 1 1 1
0 0 0 0 0 0 0 0 0 0 0 0 0 0 1 4 11 19 25 33 41 40 35 33 32 31 29 28 26 22 16 10 7 6 6 6 6 5 3 1 1 1 1 2
0 0 0 0 0 0 0 0 0 0 0 0 0 0 3 10 16 20 24 29 32 30 28 28 26 25 26 25 22 18 15 11 8 6 6 5 5 4 2 0 0 0 1 2
0 0 0 0 0 0 0 0 0 0 0 0 0 0 3 11 18 20 22 25 26 23 22 22 18 17 20 20 16 14 13 12 9 7 5 4 2 1 0 0 0 0 0 1
0 0 0 0 0 0 0 0 0 0 0 0 0 0 3 10 17 19 20 22 22 20 19 18 15 13 14 14 13 13 13 12 11 8 6 3 2 1 0 0 0 0 0 0
0 0 0 0 0 0 0 0 0 0 0 0 0 1 4 10 17 20 22 21 18 16 17 18 16 14 11 11 11 12 12 12 10 8 5 3 3 2 0 0 0 0 0 0
0 0 0 0 0 0 0 0 0 0 0 0 0 1 5 12 18 22 25 24 19 18 19 18 17 14 10 9 9 11 12 11 8 5 3 2 2 1 0 0 0 0 0 0
0 0 0 0 0 0 0 0 0 0 0 0 0 1 5 13 20 23 25 25 23 23 22 20 17 15 13 10 9 9 10 9 5 2 1 0 0 0 0 0 0 0 0 0
0 0 0 0 0 0 0 0 0 0 0 0 1 2 6 13 19 22 26 30 31 29 27 23 20 18 15 11 9 7 7 5 2 1 0 0 0 0 0 0 1 1 0 0
0 0 0 0 0 0 0 0 0 0 0 1 3 4 8 13 18 23 31 38 40 33 28 26 23 20 15 9 5 4 3 3 2 0 0 0 0 0 1 1 2 2 1 0
0 0 0 0 0 0 0 0 0 0 1 3 5 9 14 19 22 28 36 43 40 32 26 24 21 18 12 6 3 3 4 5 4 2 1 1 1 1 1 2 2 2 1 0
0 0 0 0 0 0 0 0 0 2 5 7 11 17 24 30 34 36 37 37 34 28 22 18 14 12 8 6 5 6 9 10 8 5 3 3 2 1 1 1 1 1 0 0
0 0 0 0 0 0 0 1 2 7 13 17 21 28 35 40 44 43 38 34 30 25 19 12 8 7 6 5 6 8 10 11 10 8 5 3 2 1 1 0 0 0 0 0
0 0 0 0 0 0 1 3 5 10 17 23 30 37 42 43 43 41 38 34 29 23 16 8 5 6 7 6 6 7 8 9 9 8 5 3 3 4 3 1 0 0 0 0
0 0 0 0 0 1 5 8 7 9 16 27 35 40 43 43 41 39 37 33 27 22 16 9 5 6 7 6 6 7 7 8 7 6 5 4 5 5 4 2 1 0 0 0
0 0 0 0 1 4 9 11 9 11 22 33 39 41 44 47 45 39 34 28 26 23 19 14 8 6 6 6 6 8 8 6 5 4 4 4 4 4 4 3 2 1 0 0
1 0 2 6 10 12 15 16 15 20 30 39 45 46 47 47 43 35 28 25 24 21 18 15 11 6 5 5 6 7 6 5 4 3 3 3 3 3 4 3 3 1 0 0
1 1 6 15 21 23 23 24 26 30 35 40 44 45 44 41 36 29 24 22 20 16 13 11 9 6 4 3 4 4 4 3 3 3 3 3 3 3 3 3 2 1 0 0
1 2 8 18 23 23 24 27 30 34 35 35 36 36 34 32 29 25 19 18 16 12 9 7 6 5 3 1 1 1 1 2 2 2 3 3 3 3 2 2 1 1 0 0
1 2 9 16 16 16 18 22 29 33 33 31 30 29 27 26 25 21 16 14 12 9 6 5 4 2 1 0 0 0 0 1 1 1 2 3 3 2 1 1 0 0 0 0

GEFSCGP_con_probscp_138.txt.gz
Probability
0 0 0 0 0 0 0 0 0 0 0 0 0 0 0 1 5 16 27 31 30 27 25 24 23 22 19 13 9 9 9 9 8 6 4 3 3 3 3 3 3 3 3 3
0 0 0 0 0 0 0 0 0 0 0 0 0 0 0 1 5 14 24 28 29 30 30 28 26 25 22 16 11 9 9 8 8 6 4 3 3 3 3 3 3 3 3 2
0 0 0 0 0 0 0 0 0 0 0 0 0 0 0 1 4 11 19 23 27 31 32 30 27 24 20 16 11 8 8 8 7 6 6 5 4 3 3 3 3 2 1 1
0 0 0 0 0 0 0 0 0 0 0 0 0 0 0 0 2 7 13 20 26 28 28 26 22 19 16 12 9 6 7 7 6 6 7 7 5 4 3 2 2 1 0 0
0 0 0 0 0 0 0 0 0 0 0 0 0 0 0 0 0 2 9 19 25 25 25 23 19 15 13 9 6 5 5 6 5 6 6 5 4 3 2 1 1 1 0 0
0 0 0 0 0 0 0 0 0 0 0 0 0 0 0 0 0 1 7 19 25 25 24 24 19 15 12 9 7 7 6 5 5 6 6 4 2 1 1 1 1 1 0 0
0 0 0 0 0 0 0 0 0 0 0 0 0 0 0 0 0 1 8 18 24 23 23 24 21 16 14 11 8 8 7 5 4 5 5 3 1 0 0 0 0 0 0 0
0 0 0 0 0 0 0 0 0 0 0 0 0 0 0 0 0 3 9 16 19 20 22 22 19 14 12 10 8 7 6 4 4 4 4 3 1 1 0 0 0 0 0 0
0 0 0 0 0 0 0 0 0 0 0 0 0 0 0 0 1 4 9 11 14 17 20 18 13 9 8 7 7 5 4 4 4 4 4 4 3 1 0 0 0 0 0 0
0 0 0 0 0 0 0 0 0 0 0 0 0 0 0 0 1 3 6 8 11 14 15 12 7 5 5 5 5 5 4 4 5 6 6 5 3 2 1 0 0 0 0 0
0 0 0 0 0 0 0 0 0 0 0 0 0 0 0 0 0 2 4 7 10 12 12 10 7 4 3 4 4 4 3 3 4 5 5 4 3 2 2 1 0 0 0 0
0 0 0 0 0 0 0 0 0 0 0 0 0 0 0 0 1 4 6 7 10 11 11 11 8 4 3 4 4 3 2 2 3 3 4 3 2 2 3 2 1 0 0 0
0 0 0 0 0 0 0 0 0 0 0 0 0 0 0 0 3 6 8 8 9 10 12 12 8 4 4 5 4 2 1 1 2 3 3 2 2 2 2 2 1 0 0 0
0 0 0 0 0 0 0 0 0 0 0 0 0 0 0 0 3 6 8 9 9 10 10 10 7 4 4 4 3 1 0 1 2 2 2 1 1 1 1 1 0 0 0 0
0 0 0 0 0 0 0 0 0 0 0 0 0 0 0 0 2 6 8 9 9 8 8 7 6 5 3 3 2 1 0 0 1 1 1 0 0 0 0 0 0 0 1 1
0 0 0 0 0 0 0 0 0 0 0 0 0 0 0 0 1 4 6 9 9 8 7 7 6 4 3 2 1 0 0 0 0 0 0 0 0 0 0 0 0 0 0 0
0 0 0 0 0 0 0 0 0 0 0 0 0 0 0 1 1 2 5 8 10 9 7 6 4 2 1 1 1 0 0 0 0 0 0 0 0 0 0 0 0 0 0 0
0 0 0 0 0 0 0 0 0 0 1 1 1 1 2 3 4 4 5 8 10 8 6 3 1 0 1 1 0 0 0 0 0 0 0 0 0 0 0 0 0 0 0 0
0 0 0 0 0 0 0 1 1 1 2 3 3 4 6 7 8 7 6 8 8 6 3 1 0 0 1 0 0 0 0 0 0 0 0 0 1 1 1 1 0 0 0 0
0 0 0 0 0 0 0 1 1 1 2 3 5 7 8 10 10 8 7 9 8 5 2 1 1 1 1 1 1 2 2 1 0 0 0 0 1 2 2 2 1 0 0 0
0 0 0 0 0 0 0 1 1 0 1 2 4 7 8 10 10 8 9 11 9 5 3 3 3 3 3 3 3 5 4 2 0 0 0 0 2 3 3 3 2 1 0 0
0 0 0 0 0 0 0 1 1 1 1 2 5 9 11 13 13 10 9 9 8 5 4 4 4 4 4 4 5 5 4 2 0 0 0 0 1 2 3 3 2 1 0 0
0 0 0 1 2 2 3 3 2 2 4 5 9 15 19 20 17 14 10 7 5 4 4 4 4 4 4 4 3 3 2 0 0 0 0 0 1 1 1 3 3 1 0 0
0 0 1 4 6 7 8 7 7 7 8 10 14 18 21 22 19 15 11 8 6 4 3 3 3 3 2 2 1 1 0 0 0 0 0 0 0 0 1 2 3 2 1 1
0 0 1 4 7 9 11 10 10 13 14 15 16 16 16 17 15 12 10 8 6 4 3 3 3 3 2 0 0 0 0 0 0 0 0 0 0 0 0 1 2 2 2 2
0 0 1 2 4 7 9 9 11 16 18 16 15 13 11 11 11 9 7 6 4 4 3 3 3 3 2 1 0 0 0 0 0 0 0 0 0 0 0 0 1 1 1 1

GEFSCGP_con_probscp_144.txt.gz
Probability
0 0 0 0 0 0 0 0 0 0 0 0 0 0 0 1 4 9 13 15 21 25 25 28 27 23 20 18 17 17 20 24 21 16 14 12 11 10 7 5 4 3 3 3
0 0 0 0 0 0 0 0 0 0 0 0 0 0 0 1 3 6 10 16 22 27 31 33 32 30 27 23 20 17 19 21 19 15 14 13 11 8 6 5 4 3 3 3
0 0 0 0 0 0 0 0 0 0 0 0 0 0 0 1 1 2 6 13 21 29 36 37 38 37 33 29 24 19 17 16 13 11 12 13 11 8 4 4 3 3 3 3
0 0 0 0 0 0 0 0 0 0 0 0 0 0 0 0 0 1 4 10 19 28 33 35 37 36 32 27 23 19 15 12 10 10 10 12 11 7 4 4 4 4 4 4
0 0 0 0 0 0 0 0 0 0 0 0 0 0 0 0 0 1 4 10 19 25 28 30 32 31 28 23 20 17 15 13 11 11 9 9 8 6 4 4 4 5 5 4
0 0 0 0 0 0 0 0 0 0 0 0 0 0 0 0 0 1 4 10 18 23 25 26 28 29 27 25 20 17 17 17 15 14 10 7 6 4 2 3 4 5 5 4
0 0 0 0 0 0 0 0 0 0 0 0 0 0 0 0 0 1 3 8 13 20 24 27 30 30 28 26 23 19 18 18 18 17 13 9 6 3 1 1 3 5 4 3
0 0 0 0 0 0 0 0 0 0 0 0 0 0 0 0 0 0 2 5 9 15 23 28 32 32 27 24 22 20 18 18 18 17 16 13 9 4 1 2 4 6 5 3
0 0 0 0 0 0 0 0 0 0 0 0 0 0 0 0 0 0 1 3 6 11 19 25 30 29 25 22 21 19 18 17 16 16 18 17 12 7 6 6 6 6 5 4
0 0 0 0 0 0 0 0 0 0 0 0 0 0 0 0 0 0 1 3 5 9 13 19 24 24 20 19 19 17 16 15 14 14 16 16 13 11 10 9 6 5 4 3
0 0 0 0 0 0 0 0 0 0 0 0 0 0 0 0 0 0 1 3 7 9 12 17 21 21 18 17 18 17 14 12 11 10 10 10 8 8 8 7 5 3 3 3
0 0 0 0 0 0 0 0 0 0 0 0 0 0 0 0 0 0 1 5 11 15 17 20 22 22 20 17 17 15 13 11 10 9 8 6 5 5 5 5 4 3 3 4
0 0 0 0 0 0 0 0 0 0 0 0 0 0 0 0 0 0 2 8 16 23 25 27 29 29 26 21 17 14 12 11 10 9 8 7 5 5 4 4 3 3 4 4
0 0 0 0 0 0 0 0 0 0 0 0 0 0 0 1 1 1 4 10 19 27 30 33 37 36 31 24 18 14 11 10 8 6 5 5 4 3 3 3 3 3 3 4
0 0 0 0 0 0 0 0 0 0 0 0 0 0 0 1 2 3 7 13 20 28 31 35 40 38 33 27 21 16 12 9 6 3 2 1 1 1 1 1 1 2 2 2
0 0 0 0 0 0 0 0 0 0 0 0 0 0 0 0 2 6 11 17 24 31 34 36 38 38 35 31 25 19 13 8 4 1 1 1 1 1 1 1 1 2 2 2
0 0 0 0 0 0 0 0 0 0 0 0 0 0 0 1 3 7 12 18 26 35 40 42 42 41 37 32 27 22 15 9 3 2 3 3 3 3 3 4 4 4 4 4
0 0 0 0 0 0 0 0 0 0 0 0 0 0 0 2 4 6 11 18 27 37 47 54 52 45 37 32 28 22 17 12 7 6 7 7 6 6 6 7 7 8 8 8
0 0 0 0 0 0 0 0 0 0 0 1 1 1 2 3 4 8 16 25 32 41 54 63 60 50 40 34 28 23 19 15 12 11 11 9 8 7 7 9 10 11 11 12
1 1 0 0 0 0 0 1 1 0 3 8 10 8 7 9 12 19 29 36 42 52 61 65 62 54 44 34 28 25 21 17 14 13 11 9 8 8 9 10 11 12 14 14
0 0 0 0 0 1 3 5 7 10 18 26 25 20 20 24 31 37 40 43 50 58 64 64 60 54 46 36 30 27 21 16 13 11 10 9 8 9 9 10 10 11 12 13
1 1 1 1 2 6 13 18 23 30 41 46 42 37 38 43 49 49 47 48 53 58 61 61 56 50 42 36 30 25 20 14 9 8 8 8 7 7 7 8 8 8 8 8
4 5 7 8 10 17 26 34 41 47 53 56 54 51 51 52 54 54 52 51 52 53 54 53 49 42 35 30 25 20 16 13 9 7 7 7 6 5 5 6 6 6 5 4
8 11 14 17 21 29 37 43 50 54 56 57 57 55 54 54 54 54 54 50 49 47 46 44 40 33 28 23 18 15 14 11 9 8 8 7 5 4 6 6 6 6 5 4
9 12 16 22 29 38 43 47 53 60 60 59 58 54 52 52 52 51 49 46 42 39 36 34 31 26 21 17 15 15 14 11 9 8 8 6 4 3 4 5 4 4 3 3
8 11 15 22 33 42 47 50 56 62 63 62 60 56 51 48 47 46 44 42 38 33 30 29 26 20 15 13 14 16 16 13 10 8 6 4 2 2 2 2 2 1 1 1

GEFSCGP_con_probscp_150.txt.gz
Probability
0 0 0 0 0 0 0 0 0 0 0 0 0 0 0 2 7 19 38 57 67 70 72 72 69 68 67 65 63 60 56 52 45 32 22 18 16 15 15 16 18 16 11 7
0 0 0 0 0 0 0 0 0 0 0 0 0 0 1 3 7 16 32 51 62 69 73 73 71 70 68 65 63 62 58 54 47 35 24 17 15 14 14 15 18 18 13 9
0 0 0 0 0 0 0 0 0 0 0 0 0 0 3 6 8 12 24 40 53 64 72 74 73 71 67 63 61 61 60 57 50 37 24 16 14 12 12 14 16 18 16 13
0 0 0 0 0 0 0 0 0 0 0 0 0 0 3 8 11 12 19 31 45 57 66 72 72 69 64 59 57 58 60 59 51 39 26 18 15 13 12 13 15 16 16 15
0 0 0 0 0 0 0 0 0 0 0 0 0 0 2 8 13 14 17 27 41 51 60 67 69 65 60 56 55 56 59 59 52 42 32 24 20 18 16 14 15 16 16 14
0 0 0 0 0 0 0 0 0 0 0 0 0 0 1 4 9 14 18 26 39 48 56 63 64 61 59 57 57 58 58 56 50 43 37 30 26 23 20 17 15 16 16 14
0 0 0 0 0 0 0 0 0 0 0 0 0 0 0 2 5 10 19 27 36 44 51 56 57 59 61 61 60 59 56 51 46 41 36 33 30 27 24 20 17 15 14 13
0 0 0 0 0 0 0 0 0 0 0 0 0 1 2 3 4 8 16 25 32 38 43 45 48 55 59 59 58 56 50 45 40 36 34 34 32 28 25 22 20 16 14 13
0 0 0 0 0 0 0 0 0 0 0 0 0 1 4 6 5 7 13 22 30 34 37 40 43 48 53 55 53 49 44 40 36 34 33 32 30 27 23 22 21 18 15 15
0 0 0 0 0 0 0 0 0 0 0 0 0 1 4 7 6 6 12 22 29 30 33 39 43 47 51 53 50 44 41 38 35 34 32 29 26 24 22 19 18 16 14 14
0 0 0 0 0 0 0 0 0 0 0 0 0 0 2 4 6 7 13 23 28 28 31 40 48 51 52 52 48 43 40 37 35 34 33 29 25 22 19 16 15 14 12 12
0 0 0 0 0 0 0 0 0 0 0 0 0 0 1 3 5 9 18 28 32 31 33 42 53 55 52 49 46 42 39 36 34 34 32 28 23 20 17 13 13 13 12 12
0 0 0 0 0 0 0 0 0 0 0 0 0 1 2 3 5 11 24 36 41 41 43 50 58 59 54 49 44 41 38 36 34 32 27 23 21 18 15 13 12 12 12 11
0 0 0 0 0 0 0 0 0 0 0 0 0 1 3 4 6 15 30 42 48 53 57 61 65 67 62 55 48 43 40 38 36 30 24 21 19 16 13 12 10 9 8 7
0 0 0 0 0 0 0 0 0 0 0 0 0 1 5 8 10 17 30 42 50 60 66 67 69 72 71 63 54 47 44 41 38 31 25 21 17 13 11 9 8 6 4 4
0 0 0 0 0 0 0 0 0 0 0 0 0 2 8 14 15 19 28 41 52 61 66 69 71 74 73 67 58 53 48 44 40 34 27 21 15 11 9 9 9 9 8 7
3 4 3 1 0 0 0 0 0 0 0 0 0 4 12 20 26 29 33 42 51 58 63 69 74 76 74 67 61 57 53 46 42 37 28 21 15 12 11 12 13 13 12 11
6 9 6 1 0 0 0 0 0 0 0 2 3 7 16 25 32 37 39 45 52 58 66 75 79 79 75 67 61 59 54 47 42 37 29 23 19 17 16 16 15 15 13 11
7 10 7 2 0 0 0 0 0 0 2 6 10 16 22 24 30 40 50 57 61 66 76 83 83 82 76 69 64 60 55 48 41 36 30 25 23 22 20 17 16 14 13 11
5 8 5 1 0 0 0 1 1 4 11 19 26 31 33 33 39 53 68 74 74 75 81 85 84 82 79 73 68 64 60 53 44 38 33 28 26 26 23 18 15 13 12 11
2 4 3 1 1 2 4 6 12 22 35 43 47 50 55 57 63 75 83 84 81 79 80 81 82 82 80 75 70 66 62 56 47 40 35 32 29 26 23 19 16 13 11 10
0 1 2 3 6 15 20 22 33 49 57 58 59 63 70 75 80 84 86 85 82 80 79 80 81 81 77 73 68 64 59 53 47 41 37 33 30 25 20 19 17 13 11 10
1 2 6 11 19 33 38 39 46 57 59 56 57 62 67 73 78 82 84 83 81 78 76 77 78 76 72 67 64 60 55 49 44 41 37 33 29 25 22 19 16 13 11 10
4 6 13 22 32 39 44 46 47 49 50 50 51 54 59 66 71 75 79 79 76 71 71 73 75 73 66 61 56 54 49 43 39 36 33 29 26 23 21 18 15 14 11 8
8 10 18 29 36 39 42 46 47 46 46 47 47 50 55 60 65 69 72 73 69 65 66 69 70 67 60 53 48 44 40 35 32 29 26 23 21 18 16 13 12 11 8 5
9 12 21 31 37 41 43 45 46 47 46 45 46 50 53 57 61 64 67 68 65 63 64 66 66 62 54 47 42 36 33 31 28 26 23 19 17 15 12 10 8 7 4 2

GEFSCGP_con_probscp_156.txt.gz
Probability
0 0 0 0 0 0 0 0 0 0 0 0 1 4 9 20 34 41 40 43 49 50 48 51 55 55 48 39 34 31 26 22 19 16 12 9 6 6 4 2 1 0 1 1
0 0 0 0 0 0 0 0 0 0 0 0 1 2 6 15 28 37 41 46 51 52 51 54 56 56 51 44 39 35 28 21 17 14 10 6 5 4 3 1 1 1 0 1
0 0 0 0 0 0 0 0 0 0 0 0 0 1 2 8 19 31 40 50 55 56 55 56 57 55 50 46 43 39 30 20 14 11 6 4 3 2 1 1 2 2 1 0
0 0 0 0 0 0 0 0 0 0 0 0 0 0 1 5 15 27 39 51 58 58 56 55 55 52 46 43 41 38 32 22 15 10 7 3 2 1 0 1 2 2 2 1
0 0 0 0 0 0 0 0 0 0 0 0 0 0 1 4 12 24 38 49 56 58 55 50 48 46 42 40 40 38 35 27 19 14 9 4 2 1 0 0 1 2 2 2
0 0 0 0 0 0 0 0 0 0 0 0 0 0 1 4 10 22 38 48 53 55 52 44 40 39 39 40 42 40 36 31 23 16 10 5 3 2 1 2 2 3 3 3
0 0 0 0 0 0 0 0 0 0 0 0 0 0 1 4 10 24 40 47 50 51 47 41 37 35 38 42 45 42 36 31 25 17 9 5 3 3 4 4 3 3 3 3
0 0 0 0 0 0 0 0 0 0 0 0 0 1 2 7 15 27 39 43 45 46 43 38 35 36 40 44 45 40 33 29 25 17 9 5 3 4 5 4 3 3 3 2
0 0 0 0 0 0 0 0 0 0 0 0 0 1 3 10 20 29 35 37 39 42 40 35 34 36 39 41 41 36 30 26 24 19 12 7 5 5 5 4 4 3 2 2
0 0 0 0 0 0 0 0 0 0 0 0 0 1 3 10 20 28 31 32 33 37 37 35 35 36 36 38 38 33 27 23 22 19 14 9 7 6 6 6 6 5 4 3
0 0 0 0 0 0 0 0 0 0 0 0 0 0 1 6 14 23 27 29 30 31 34 36 38 37 36 37 37 31 25 21 18 16 13 9 7 6 6 5 5 5 4 3
0 0 0 0 0 0 0 0 0 0 0 0 0 0 1 3 9 19 25 29 29 29 30 35 39 38 36 36 35 29 23 19 15 12 10 6 5 4 3 3 2 2 2 1
0 0 0 0 0 0 0 0 0 0 0 0 0 0 1 3 10 20 29 32 32 31 31 36 40 39 36 35 33 27 23 20 15 11 6 4 4 3 2 1 0 0 0 0
0 0 0 0 0 0 0 0 0 0 0 0 0 0 1 6 13 22 30 36 37 37 39 43 43 40 37 36 32 28 24 20 15 10 5 3 2 2 1 0 0 0 0 0
0 0 0 0 0 0 0 0 0 0 0 0 0 1 3 8 16 23 31 40 43 43 47 50 48 45 42 38 33 30 27 21 16 11 7 4 2 1 0 0 0 0 0 0
0 0 0 0 0 0 0 0 0 0 1 2 2 5 8 14 23 28 36 46 51 51 54 56 54 54 51 43 35 32 30 24 18 14 10 6 4 3 1 1 0 0 0 0
0 0 0 0 0 0 0 0 0 2 6 7 8 12 18 25 30 34 42 53 60 62 63 62 61 61 57 48 39 35 32 26 20 16 12 7 6 5 4 3 1 1 0 0
0 0 0 0 0 0 0 0 1 6 13 19 21 24 28 32 35 37 43 55 64 68 68 67 66 65 60 52 44 39 33 26 20 15 10 6 5 5 5 4 3 1 0 0
0 0 0 0 0 0 3 4 5 11 22 31 35 37 39 40 41 40 43 52 61 66 67 68 70 69 63 57 52 45 35 25 17 12 7 4 4 4 4 4 2 1 0 0
0 0 0 0 0 2 9 14 13 18 30 38 43 48 50 49 47 45 47 53 60 65 67 69 72 72 66 62 58 52 40 25 15 10 6 5 5 5 4 2 1 0 0 0
1 0 0 0 0 3 13 20 19 22 32 41 47 53 58 58 56 56 57 62 67 70 69 70 73 72 68 63 57 51 40 26 16 12 9 6 5 4 2 1 0 0 0 1
1 0 0 0 0 5 13 19 21 25 34 41 48 54 59 65 68 68 68 70 73 72 70 71 70 68 64 59 52 44 35 26 17 13 10 7 4 2 0 0 0 0 0 1
1 1 3 5 8 12 17 20 23 30 38 42 46 53 60 65 70 71 70 70 71 70 67 65 63 60 56 51 45 39 31 24 17 12 8 7 5 2 0 0 0 0 0 1
1 3 7 12 17 20 21 23 27 33 38 42 47 53 57 59 62 64 65 66 67 64 60 56 55 53 49 42 37 33 27 20 16 13 9 8 6 3 1 1 1 1 1 1
2 5 9 13 17 17 17 20 26 31 35 41 48 52 53 54 55 56 57 58 57 54 51 48 46 45 41 35 30 27 22 17 17 16 12 9 7 4 2 2 2 2 2 2
3 5 7 10 10 11 11 15 21 28 33 41 48 51 51 51 51 52 51 48 47 45 44 41 39 38 37 32 27 25 20 16 17 18 15 11 7 4 3 3 3 3 3 2